User: anonymous   Login
Location: Unspecified
(0.0000°N, 0.0000°E)
Time: 21:52:36
(UTC+00:00)
Language:

TBA - TO BE ASSIGNED - Orbit

View from above orbital plane
View from above orbital plane
View from above satellite
View from above satellite

Ground track
Ground track

The orbit is defined by the following mean orbital elements,

1 67445U          26145.35285833 +.00000000 +00000-0 +56600-3 0 00004
2 67445  43.0021 132.5585 0001371 268.5816  91.4879 15.27593497    05
Epoch (UTC): 25 May 2026 08:28:06
Eccentricity: 0.0001371
inclination: 43.0021°
perigee height: 482 km
apogee height: 484 km
right ascension of ascending node: 132.5585°
argument of perigee: 268.5816°
revolutions per day: 15.27593497
mean anomaly at epoch: 91.4879°

The dashed part of the orbit path shows where the satellite is in the earth's shadow,  

DLR